This demonstration page uses our WeatherBlox Daily Observations layout. Learn more.

Left ArrowRight Arrow

38.83388, -104.82136

Hourly Observations for May 11, 2022

Temp ( °F °C ) Dew Point ( °F °C ) Humidity (%) Winds ( mph kmh ) Pressure ( in mb ) Visibility ( mi km ) Precip ( " mm )
8:58 am 08:58 undefined N/A N/A N/A undefined N/A N/A 10 16 0.00 0.00
9:58 am 09:58 Sunny 70 21.2 11 -11.7 10 10 SSE 16 26 29.70 1006 10 16 0.00 0.00
10:58 am 10:58 Sunny 73 22.7 13 -10.5 10 10 SE 25 41 29.68 1005 10 16 0.00 0.00
11:39 am 11:39 Sunny 75 24 12 -11 9 9 S 25 41 29.67 1005 10 16 0.00 0.00
11:42 am 11:42 Sunny 73 23 12 -11 9 9 SSE 20 31 29.69 1005 10 16 0.00 0.00
11:58 am 11:58 Sunny 74 23.6 12 -11.2 9 9 S 22 35 29.67 1005 10 16 0.00 0.00
12:58 pm 12:58 Sunny 77 25.2 11 -11.4 8 8 SE 18 30 29.65 1004 10 16 0.00 0.00
1:44 pm 13:44 Sunny 79 26 12 -11 8 8 S 15 24 29.64 1004 10 16 0.00 0.00
1:46 pm 13:46 Sunny 79 26 12 -11 8 8 SSE 15 24 29.64 1004 10 16 0.00 0.00
1:58 pm 13:58 Sunny 79 26.2 13 -10.7 8 8 SSE 16 26 29.63 1004 10 16 0.00 0.00
2:58 pm 14:58 Sunny 80 26.7 10 -12 7 7 SSE 14 22 29.61 1003 10 16 0.00 0.00
3:58 pm 15:58 Sunny 80 26.4 7 -14.1 6 6 SSE 20 31 29.59 1002 10 16 0.00 0.00
4:20 pm 16:20 Mostly Sunny 79 26 10 -12 7 7 S 15 24 29.60 1002 10 16 0.00 0.00
4:31 pm 16:31 Mostly Sunny 81 27 7 -14 6 6 S 18 30 29.58 1002 10 16 0.00 0.00
4:58 pm 16:58 Sunny 80 26.5 7 -14 6 6 SSE 20 31 29.60 1002 10 16 0.00 0.00
5:17 pm 17:17 Partly Cloudy 79 26 7 -14 6 6 SSE 16 26 29.59 1002 10 16 0.00 0.00
5:31 pm 17:31 Mostly Sunny 79 26 5 -15 6 6 S 20 31 29.60 1002 10 16 0.00 0.00
5:58 pm 17:58 Mostly Sunny 77 25 5 -15.1 6 6 SSE 17 28 29.56 1001 10 16 0.00 0.00
6:35 pm 18:35 Sunny 77 25 5 -15 6 6 S 17 28 29.55 1001 10 16 0.00 0.00
6:54 pm 18:54 Sunny 77 25 5 -15 6 6 SE 13 20 29.54 1000 10 16 0.00 0.00
6:58 pm 18:58 Sunny 76 24.3 4 -15.6 6 6 SSE 14 22 29.56 1001 10 16 0.00 0.00
7:58 pm 19:58 Sunny 74 23.6 6 -14.3 7 7 SE 9 15 29.57 1002 10 16 0.00 0.00
8:58 pm 20:58 Clear 73 22.9 8 -13.1 8 8 SSE 13 20 29.55 1001 10 16 0.00 0.00
9:58 pm 21:58 Clear 72 22.2 10 -12.2 9 9 S 7 11 29.54 1000 10 16 0.00 0.00
10:58 pm 22:58 Clear 72 22 12 -11 10 10 S 13 20 29.53 1000 10 16 0.00 0.00
11:58 pm 23:58 Clear 70 21.2 15 -9.4 12 12 S 12 19 29.50 999 10 16 0.00 0.00

Powered by AerisWeather